CZ-6A DEB, 60874

Orbit data source: Space-Track

CZ-6A DEB, 60874 is space debris in LEO originally from a launch on Tue, 06 Aug 2024 UTC launched from the Taiyaun Space Center, China (TSC). Debris objects in space refer to the collection of defunct objects orbiting the Earth. Examples of debris include non-operational satellites, rocket bodies, and fragments generated from explosions, collisions, or faulty payload assembly.

Loading next visibility...
Identifier
60874, 2024-140KD
Orbit
LEO
Country
Flag of CNCN / PRC
Related business
Manufacturer
SAST
Mission
Spacecraft
Bus & Motor
Unknown
Mass
Unknown
Launch date (UTC)
2024-08-06 (2 years ago)
Launch vehicle
Unknown
Launch site
Taiyaun Space Center, China (TSC)
Object type
Payload
Rocket body
Debris
Shape & HBR
Unknown shape, 0.2 m
Radar Cross Section
Small (<0.1 m²)

Expand to show TLE details & history
Last TLE update: 12 hours ago

TLE from 12 hours ago
0 CZ-6A DEB
1 60874U 24140KD  26130.11948446  .00000839  00000-0  18828-3 0  9995
2 60874  88.8783 265.6095 0102563  41.4493 319.4436 14.52313207 91833
Epoch: 2026-05-10T02:52Z
TLE epoch observation values (Epoch: 2026-05-10T02:52:03.457Z)
Latitude
-0.00005°
Longitude
-5.33204°
Altitude
666.213 km
Speed
7.553 km/s
True Right ascension
17h 42m 26s
True Declination
0° 00' 00"
Sunlit
Object was in full shadow at epoch
Visualization orbit readout
Latitude
Unknown
Longitude
Unknown
Altitude
Unknown
Speed
Unknown
Apparent Right ascension
Unknown
Apparent Declination
Unknown
Sunlit
N/A
Visualization observer readout
Local Sidereal Time
22:57:31
Azimuth
Unknown
Elevation
Unknown
Doppler factor
Unknown
Orbital elements
Apogee altitude
787.758 km
Perigee altitude
642.259 km
Semi-major axis
7,093.146 km
Eccentricity
0.01026
Inclination
88.8783°
RAAN
265.6095°
Arg. of periapsis
41.4493°
True anomaly
318.67194°
Mean anomaly
319.4436°
Eccentric anomaly
319.05852°
Mean motion
3.63316 °/min
Orbital period
99.09 mins
BSTAR
0.00018828
Loading maneuver chart data...
Computing Atmospheric mass density...

Documentation

Showing up to 5 results
|